London, WV

12:11 PM EDT on August 25, 2016 (GMT -0400)
London

Weather History for KCRW - May, 2013

Change the Weather History Date:

Monday, May 27, 2013

  Actual Average (KCRW) Record (KCRW)
Temperature  
Mean Temperature 63 °F 66 °F  
Max Temperature 78 °F 77 °F 95 °F (1918)
Min Temperature 47 °F 56 °F 37 °F (1949)
Degree Days  
Heating Degree Days 2 2  
Month to date heating degree days 100 109  
Since 1 July heating degree days 4516 4457  
Cooling Degree Days 0 4  
Month to date cooling degree days 71 60  
Year to date cooling degree days 110 92  
Growing Degree Days 12 (Base 50)    
Moisture  
Dew Point 51 °F    
Average Humidity 72    
Maximum Humidity 93    
Minimum Humidity 50    
Precipitation  
Precipitation 0.01 in 0.16 in 2.38 in (1917)
Month to date precipitation 4.56 4.13  
Year to date precipitation 15.43 17.47  
Snow  
Snow 0.00 in - - ()
Month to date snowfall 0.0  
Since 1 September snowfall 25.3  
Snow Depth 0.00 in    
Sea Level Pressure  
Sea Level Pressure 30.17 in    
Wind  
Wind Speed 3 mph (NE)    
Max Wind Speed 12 mph    
Max Gust Speed 15 mph    
Visibility 10 miles    
Events Rain    
T = Trace of Precipitation, MM = Missing Value Source: NWS Daily Summary

Daily Weather History Graph

Daily Weather History Graph

Search for Another Location

Airport or City:

Trip Planner

Search our weather history database for the weather conditions in past years. The results will help you decide how hot, cold, wet, or windy it might be!

Date:

Astronomy

May. 27, 2013 Rise Set
Actual Time 6:06 AM EDT 8:39 PM EDT
Civil Twilight 5:35 AM EDT 9:10 PM EDT
Nautical Twilight 4:57 AM EDT 9:48 PM EDT
Astronomical Twilight 4:15 AM EDT 10:30 PM EDT
Moon 11:18 PM EDT (5/27) 8:41 AM EDT (5/27)
Length of Visible Light 15h 34m
Length of Day
14h 33m
Waning Gibbous, 91% of the Moon is Illuminated
May 27
Waning Gibbous
May 31
Last Quarter
Jun 8
New
Jun 16
First Quarter
Jun 23
Full

Hourly Weather History & Observations

Time (EDT) Temp. Dew Point Humidity Pressure Visibility Wind Dir Wind Speed Gust Speed Precip Events Conditions
12:54 AM 51.1 °F 46.0 °F 83% 30.25 in 10.0 mi Calm Calm - N/A   Mostly Cloudy
1:54 AM 51.1 °F 46.0 °F 83% 30.24 in 10.0 mi Calm Calm - N/A   Mostly Cloudy
2:54 AM 50.0 °F 45.0 °F 83% 30.23 in 10.0 mi NNE 3.5 mph - N/A   Mostly Cloudy
3:54 AM 48.0 °F 44.1 °F 86% 30.23 in 10.0 mi NNE 3.5 mph - N/A   Mostly Cloudy
4:54 AM 46.9 °F 44.1 °F 90% 30.22 in 10.0 mi North 3.5 mph - N/A   Mostly Cloudy
5:54 AM 46.9 °F 43.0 °F 86% 30.22 in 10.0 mi Calm Calm - N/A   Mostly Cloudy
6:54 AM 48.0 °F 43.0 °F 83% 30.23 in 10.0 mi NNE 3.5 mph - N/A   Mostly Cloudy
7:54 AM 48.9 °F 42.1 °F 77% 30.25 in 10.0 mi Calm Calm - N/A   Overcast
8:54 AM 50.0 °F 44.1 °F 80% 30.25 in 10.0 mi NE 3.5 mph - 0.00 in Rain Light Rain
9:54 AM 50.0 °F 45.0 °F 83% 30.26 in 8.0 mi Calm Calm - 0.01 in Rain Light Rain
10:54 AM 54.0 °F 48.0 °F 80% 30.22 in 10.0 mi NNE 3.5 mph - 0.00 in   Overcast
11:54 AM 61.0 °F 51.1 °F 70% 30.21 in 10.0 mi North 4.6 mph - N/A   Overcast
12:54 PM 66.0 °F 53.1 °F 63% 30.19 in 10.0 mi Variable 4.6 mph - N/A   Overcast
1:54 PM 70.0 °F 54.0 °F 57% 30.17 in 10.0 mi NE 5.8 mph - N/A   Mostly Cloudy
2:54 PM 73.9 °F 55.9 °F 53% 30.14 in 10.0 mi NE 6.9 mph - N/A   Mostly Cloudy
3:54 PM 75.0 °F 57.0 °F 53% 30.12 in 10.0 mi ENE 5.8 mph - N/A   Mostly Cloudy
4:54 PM 77.0 °F 57.0 °F 50% 30.09 in 10.0 mi ENE 8.1 mph - N/A   Partly Cloudy
5:54 PM 77.0 °F 57.9 °F 52% 30.08 in 10.0 mi NE 4.6 mph - N/A   Partly Cloudy
6:54 PM 77.0 °F 57.9 °F 52% 30.06 in 10.0 mi ENE 4.6 mph - N/A   Partly Cloudy
7:54 PM 75.0 °F 57.9 °F 55% 30.06 in 10.0 mi Calm Calm - N/A   Partly Cloudy
8:54 PM 71.1 °F 59.0 °F 66% 30.05 in 10.0 mi Calm Calm - N/A   Scattered Clouds
9:54 PM 66.9 °F 60.1 °F 79% 30.07 in 10.0 mi Calm Calm - N/A   Mostly Cloudy
10:54 PM 66.0 °F 60.1 °F 81% 30.07 in 10.0 mi Calm Calm - N/A   Clear
11:54 PM 63.0 °F 60.1 °F 90% 30.07 in 10.0 mi NE 4.6 mph - N/A   Scattered Clouds